CYGFM05

Last updated on Thu Apr 09 2026 00:02:23 GMT+0000 (Coordinated Universal Time)

1 41884U 16078A 26098.14327790 .00023074 00000+0 34816-3 0 9995 2 41884 34.9590 3.3410 0007701 222.4186 137.5942 15.53741249517845
UTC large
Height (km)
Speed (km/s)
/
Latitude / Longitude
Inclination (degrees)
Orbital Period (minutes)
Azimuth
Elevation
Range (km)
Doppler Factor

Next 0 passes for location: London (51.5072 / 0.1276)

Sorry there are no passes over London.